Location: Mesa
(33.4220°N, 111.8220°W)
Time: 00:29:39
(UTC-07:00)

N. Korean satellite - Pass Details

Date: 21 November 2019
Orbit: 455 x 507 km, 97.2° (Epoch: 12 December)

Event Time Altitude Azimuth Distance (km) Brightness Sun altitude
Rises 06:10:43 0° 12° (NNE) 2,598 10.2 -11.3°
Reaches altitude 10° 06:12:50 10° 14° (NNE) 1,704 9.3 -10.9°
Maximum altitude 06:16:30 79° 100° (E) 505 6.7 -10.1°
Drops below altitude 10° 06:20:05 10° 189° (S) 1,665 9.4 -9.4°
Sets 06:22:07 0° 190° (S) 2,532 10.3 -9.0°
